Погода в Романовке

Погода в Романовке : погода сейчас, прогноз погоды и архив. Всё, что Вы хотите узнать о погоде в Романовке!

Поиск расширенной информации на нашем сайте:

Другие новости

Новости СМИ2

Главная страница сайта

Новости сайта

03.07.2017

Напоминаем, что на нашем специализированном сайте Метеоцентр.Азия вы можете получить высокодетализированные автоматические прогнозы погоды по пунктам России, СНГ и мира в авиационном формате (включающие направление и скорость ветра, видимость, явления погоды, количество и форму облачности, нижнюю и верхнюю границу облачности).

Рекомендуем: Пластыри для стоп китайские - выгодные цены!

Погода в Романовке - сегодня

Время (UTC), дата Ветер
(°,м/с) 
Видим.   Явления Облачность Т
(°С)
Тd
(°С)
f(%) Тe
(°С)
Pmin
(гПа)
dP
(гПа)
Po
(мм)
O2
(г/м3)
Тmin Tmax R s Состояние
почвы
03 20.07.17 150 (ЮВ) 20000 м    3/3 1000 м 
[Cu med, cong]
+20.9 +7.4 42 +21  1006.2  -0.5  679  253           
06 20.07.17 270 (З) 20000 м    5/4 1000 м верхняя 
[Cu med, cong|Ci fib]
+23.7 +4.8 29 +24  1004.4  -0.8  678  251           
09 20.07.17 330 (СЗ) 20000 м  {ливн. осадки}  8/6 600 м кучево-дожд., верхняя 
[Cb cap|Ci fib]
+20.4 +7.5 43 +20  1006.2  0.6  679  253           
12 20.07.17 тихо ()   20000 м  {ливн. осадки}  3/3 600 м кучево-дожд. 
[Cb cap]
+20.8 +7.6 42 +21  1005.8  -0.1  679  253    +24.3  0.0     
15 20.07.17 010 (С) н/о    ясно 
+10.9 +7.5 80 +12  1011.2  1.5  680  262           
18 20.07.17 360 (С) н/о    ясно 
+6.7 +5.4 91 +8  1013  0.1  680  266           
21 20.07.17 080 (В) 10 км  туман на расстоянии  3/0 верхняя 
[Ci fib]
+5.1 +4.7 97 +6  1013.3  -0.3  680  268           
00 21.07.17 030 (СВ) 20000 м    10/0 средняя, верхняя 
[Ac trans|Ci fib]
+10.9 +7.3 78 +12  1010.4  -0.5  679  262  +5.1        сухая 
03 21.07.17 050 (СВ) 20000 м  гроза без осадков{ливн. осадки}  10/10 600 м кучево-дожд. 
[Cb cap]
+13 +11.6 91 +20  1009.2  -0.2  679  259           
06 21.07.17 160 (Ю) 20000 м  {гроза, ливн. осадки}  10/10 600 м кучево-дожд. 
[Cb cap]
+18.4 +12.9 70 +27  1005.2  -1.8  678  253           
09 21.07.17 340 (С) 20000 м  гроза без осадков{ливн. осадки}  10/10 600 м кучево-дожд. 
[Cb cap]
+14 +12.4 90 +22  1006.9  0.1  678  257           
12 21.07.17 210 (ЮЗ) 20000 м  {гроза, ливн. осадки}  5/3 600 м кучево-дожд., верхняя 
[Cb cap|Ci fib]
+15.7 +12.9 83 +24  1006.3  0.1  678  256    +18.4  16     
15 21.07.17 230 (ЮЗ) н/о    5/4 600 м кучево-дожд., верхняя 
[Cb cap|Ci fib]
+12.4 +9 80 +14  1008.8  0.9  679  260           
18 21.07.17 240 (ЮЗ) н/о    8/5 600 м кучево-дожд., верхняя 
[Cb cap|Ci fib]
+11.9 +8.2 78 +14  1008.3  -0.6  678  260           
21 21.07.17 220 (ЮЗ) 20000 м    8/8 600 м кучево-дожд. 
[Cb cap]
+11.8 +8.3 79 +13  1008.4  678  260           
00 22.07.17 250 (З) 20000 м    6/0 средняя, верхняя 
[Ac lent|Ci fib]
+16 +9.6 66 +20  1006.9  0.1  678  256  +11.7        мокрая 
03 22.07.17 310 (СЗ) 20000 м    8/8 600 м кучево-дожд. 
[Cb cap]
+19.7 +9 50 +23  1005.9  0.4  679  253           
06 22.07.17 360 (С) 20000 м  {ливн. осадки}  8/8 600 м кучево-дожд. 
[Cb cap]
+21.4 +9.1 45 +23  1004.6  -0.6  678  252           
09 22.07.17 230 (ЮЗ) 5{10}  20000 м    8/8 600 м кучево-дожд. 
[Cb cap]
+18.6 +11 61 +24  1005.8  0.2  678  254           
12 22.07.17 230 (ЮЗ) 20000 м    10/10 600 м кучево-дожд. 
[Cb cap]
+15.7 +10.8 73 +20  1007.5  0.5  679  256    +22.3  0.0     
15 22.07.17 230 (ЮЗ) н/о    10/6 600 м кучево-дожд., верхняя 
[Cb cap|Ci fib]
+12.9 +10.3 84 +17  1009.1  0.5  679  259           
18 22.07.17 010 (С) н/о    10/8 600 м кучево-дожд., верхняя 
[Cb cap|Ci fib]
+11.2 +9.7 90 +15  1010.9  680  261           
21 22.07.17 350 (С) 20000 м  {ливн. осадки}  8/6 600 м кучево-дожд., верхняя 
[Cb cap|Ci fib]
+9.4 +8.1 92 +10  1013  1.2  681  264           
00 23.07.17 030 (СВ) 20000 м  {ливн. осадки}  10/6 600 м кучево-дожд., средняя, верхняя 
[Cb cap|Ac trans|Ci fib]
+11.9 +9.5 85 +15  1012.9  0.8  681  261  +8.9      влажная 
03 23.07.17 080 (В) 20000 м    10/5 600 м кучево-дожд., средняя, верхняя 
[Cb cap|Ac trans|Ci fib]
+13.9 +6.6 61 +14  1013  0.7  682  260           
Время (UTC), дата Ветер
(°,м/с) 
Видим.   Явления Облачность Т
(°С)
Тd
(°С)
f(%) Тe
(°С)
Pmin
(гПа)
dP
(гПа)
Po
(мм)
O2
(г/м3)
Тmin Tmax R s Состояние
почвы

Для получения пояснительной информации подведите курсор к названию столбца.

ПОГОДА в Романовке - архив

Всё, что Вы хотите узнать о погоде в Романовке - удобно и подробно!

Выберите нужную дату (начиная с 1 января 2015* года) и нажмите кнопку "Найти".
Будут отображены архивные сводки погоды по пункту Романовка, начиная с указанной даты.


Отображать данные в формате CSV (для использования в таблицах Excel)


Внимание! Наш архив погоды предназначен исключительно для личного некоммерческого использования в познавательных целях. Если Вам необходимы официальные справки о состоянии погоды (для производственных, юридических, коммерческих и т.п. целей), обращайтесь в органы Росгидромета.

*Примечание: данная дата относится к архиву по метеостанциям СССР (Россия, СНГ, Балтия).
Архив по метеостанциям Зарубежной Европы и Азии (кроме Китая) хранится 10 дней, по другим регионам земного шара (Китай, Африка, Америка, Австралия, Океания) - 1 день.

Романовка - район местоположения метеостанции


Название, широта, долгота, высота метеостанции:
Романовка 53.2°ш. 112.8°д. 923 м над ур. моря [Российская Федерация]

Дополнительная информация

В oтличие oт бoльшинства пoгoдных сайтoв мы публикуем пoдрoбную метеoинфoрмацию в детальнoм прoфессиoнальнoм фoрмате.

Характеристики температуры и влажнoсти вoздуха измеряются на высoте 2 м в тени вдали oт зданий и деревьев.
Скoрoсть ветра измеряется на высoте 10 м (на урoвне рoста челoвека скoрoсть ветра ниже в 1.5-2 раза). Если метеoстанция нахoдится в гoрoде или в лесу, тo скoрoсть ветра занижена на 2-4 м/с пo сравнению с oткрытым местoм. Скoрoсть ветра над акватoриями крупных рек и oзёр, а также на вершинах хoлмoв на 2-5 м/с выше, чем в oбычных услoвиях.
Атмoсфернoе давление в разных тoчках местнoсти мoжет значительнo oтличаться oт давления на метеoстанции, в зависимoсти oт услoвий рельефа (при пoдъёме на 10 м давление пoнижается примернo на 1 мм рт.ст.).